period_start,C,m1,H,J0,J1,J2,J3,J4,J5,JA,JB,JC,JD,JJ,JK,JN,#
2015-06-05 00:02:20,0.03,1.65,0.00,25.44,28.86,31.36,4.71,25.91,1019.07,2029.35,2893.69,2813.99,3067.04,349.65,345.23,25.90,0000 0000 0000 0000 000000
2015-06-05 00:07:22,0.01,1.65,0.00,25.46,28.87,31.37,4.70,25.90,1019.06,2029.42,2893.33,2813.94,3067.00,349.99,345.51,25.93,0000 0000 0000 0000 000000
2015-06-05 00:12:23,0.01,1.65,0.00,25.48,28.88,31.39,4.73,25.92,1019.07,2029.31,2893.04,2813.59,3066.97,349.95,345.43,25.96,0000 0000 0000 0000 000000
2015-06-05 00:17:25,0.02,1.65,0.00,25.50,28.90,31.40,4.77,25.98,1019.08,2029.23,2892.99,2813.05,3066.36,350.09,345.79,25.99,0000 0000 0000 0000 000000
2015-06-05 00:22:26,0.01,1.65,0.00,25.52,28.91,31.41,4.72,25.88,1019.09,2029.05,2892.77,2813.00,3066.01,349.72,345.45,26.02,0000 0000 0000 0000 000000
2015-06-05 00:27:27,0.05,1.65,0.00,25.53,28.92,31.42,4.69,25.84,1019.09,2029.04,2892.08,2812.64,3065.90,349.65,345.19,26.05,0000 0000 0000 0000 000000
2015-06-05 00:32:29,0.08,1.65,0.00,25.54,28.93,31.44,4.72,25.87,1019.09,2029.03,2891.52,2811.92,3065.03,349.76,345.33,26.08,0000 0000 0000 0000 000000
2015-06-05 00:37:30,0.07,1.65,0.00,25.57,28.95,31.45,4.77,25.88,1019.11,2029.00,2891.01,2811.11,3064.21,350.31,346.10,26.10,0000 0000 0000 0000 000000
2015-06-05 00:42:31,0.03,1.65,0.00,25.58,28.96,31.46,4.73,25.87,1019.12,2029.00,2890.55,2810.89,3063.97,349.94,345.49,26.13,0000 0000 0000 0000 000000
2015-06-05 00:47:32,0.07,1.66,0.00,25.60,28.97,31.47,4.78,25.87,1019.26,2029.00,2890.00,2810.11,3063.21,349.91,345.60,26.16,0000 0000 0000 0000 000000
2015-06-05 00:52:34,0.10,1.66,0.00,25.61,28.99,31.49,4.74,25.86,1019.26,2029.00,2889.31,2809.51,3062.45,350.17,345.68,26.19,0000 0000 0000 0000 000000
2015-06-05 00:57:35,0.05,1.66,0.00,25.63,29.00,31.49,4.71,25.90,1019.34,2029.00,2888.70,2808.89,3061.78,350.05,345.70,26.22,0000 0000 0000 0000 000000
2015-06-05 01:02:36,0.07,1.66,0.00,25.65,29.01,31.51,4.65,25.82,1019.39,2028.98,2887.98,2808.07,3061.01,349.57,344.90,26.25,0000 0000 0000 0000 000000
2015-06-05 01:07:37,0.11,1.67,0.00,25.67,29.02,31.53,4.69,25.93,1019.45,2028.98,2887.14,2807.47,3060.13,349.95,345.67,26.28,0000 0000 0000 0000 000000
2015-06-05 01:12:38,0.11,1.67,0.00,25.70,29.04,31.54,4.74,25.83,1019.52,2028.97,2886.15,2806.40,3059.08,349.85,345.31,26.31,0000 0000 0000 0000 000000
2015-06-05 01:17:40,0.09,1.67,0.00,25.71,29.05,31.56,4.77,25.94,1019.53,2028.97,2885.38,2805.73,3058.16,350.07,345.61,26.34,0000 0000 0000 0000 000000
2015-06-05 01:22:41,0.06,1.68,0.00,25.73,29.07,31.57,4.72,25.82,1019.51,2028.92,2884.67,2805.01,3057.50,350.11,345.53,26.37,0000 0000 0000 0000 000000
2015-06-05 01:27:42,0.07,1.68,0.00,25.76,29.08,31.58,4.73,25.87,1019.47,2028.93,2883.94,2804.31,3056.79,350.13,345.38,26.40,0000 0000 0000 0000 000000
2015-06-05 01:32:44,0.06,1.68,0.00,25.77,29.10,31.60,4.69,25.80,1019.47,2028.72,2883.07,2803.53,3055.96,350.02,345.44,26.43,0000 0000 0000 0000 000000
2015-06-05 01:37:45,0.03,1.68,0.00,25.80,29.11,31.62,4.65,25.96,1019.51,2028.56,2882.61,2802.99,3055.19,349.09,344.70,26.46,0000 0000 0000 0000 000000
2015-06-05 01:42:46,0.06,1.68,0.00,25.82,29.13,31.62,4.77,25.93,1019.51,2028.18,2881.51,2802.24,3054.48,350.41,345.82,26.49,0000 0000 0000 0000 000000
2015-06-05 01:47:47,0.00,1.68,0.00,25.85,29.15,31.64,4.71,25.82,1019.50,2028.09,2880.92,2801.95,3054.00,350.00,345.24,26.51,0000 0000 0000 0000 000000
2015-06-05 01:52:48,0.10,1.69,0.00,25.86,29.16,31.65,4.78,25.88,1019.46,2028.03,2880.13,2801.27,3053.38,350.20,345.39,26.54,0000 0000 0000 0000 000000
2015-06-05 01:57:49,0.08,1.69,0.00,25.88,29.17,31.67,4.68,25.96,1019.47,2028.00,2879.38,2800.67,3052.68,349.94,345.29,26.57,0000 0000 0000 0000 000000
2015-06-05 02:02:50,0.04,1.69,0.00,25.91,29.20,31.69,4.76,25.94,1019.47,2028.00,2878.87,2800.02,3052.01,350.19,345.56,26.60,0000 0000 0000 0000 000000
2015-06-05 02:07:51,0.07,1.69,0.00,25.92,29.21,31.71,4.73,25.84,1019.41,2028.00,2878.08,2799.71,3051.53,350.15,345.31,26.63,0000 0000 0000 0000 000000
2015-06-05 02:12:52,0.06,1.69,0.00,25.95,29.22,31.72,4.65,25.90,1019.37,2028.00,2877.53,2799.01,3050.95,349.59,344.70,26.66,0000 0000 0000 0000 000000
2015-06-05 02:17:53,0.06,1.69,0.00,25.97,29.25,31.74,4.77,25.89,1019.36,2027.99,2877.01,2798.70,3050.33,349.96,345.13,26.69,0000 0000 0000 0000 000000
2015-06-05 02:22:54,0.04,1.70,0.00,25.99,29.26,31.76,4.76,25.85,1019.30,2027.99,2876.66,2798.02,3049.98,349.81,344.95,26.72,0000 0000 0000 0000 000000
2015-06-05 02:27:56,0.05,1.70,0.00,26.02,29.27,31.77,4.74,25.91,1019.31,2027.98,2876.03,2797.86,3049.26,350.42,345.43,26.75,0000 0000 0000 0000 000000
2015-06-05 02:32:57,0.05,1.70,0.00,26.04,29.30,31.79,4.76,25.96,1019.23,2027.96,2875.87,2797.13,3049.00,350.13,345.22,26.78,0000 0000 0000 0000 000000
2015-06-05 02:37:58,0.03,1.70,0.00,26.06,29.31,31.81,4.79,25.90,1019.24,2027.92,2875.17,2796.96,3048.62,349.96,345.07,26.81,0000 0000 0000 0000 000000
2015-06-05 02:42:59,0.07,1.70,0.00,26.08,29.33,31.82,4.71,25.85,1019.22,2027.78,2874.43,2796.14,3048.00,349.92,345.02,26.84,0000 0000 0000 0000 000000
2015-06-05 02:48:01,0.00,1.70,0.00,26.11,29.35,31.84,4.70,25.89,1019.44,2027.74,2874.01,2796.00,3047.53,350.02,344.91,26.87,0000 0000 0000 0000 000000
2015-06-05 02:53:02,0.02,1.70,0.00,26.12,29.37,31.86,4.73,25.82,1019.47,2027.52,2873.65,2795.66,3047.03,350.20,345.35,26.90,0000 0000 0000 0000 000000
2015-06-05 02:58:04,-0.01,1.70,0.00,26.14,29.38,31.88,4.77,25.98,1019.52,2027.15,2873.03,2795.03,3046.70,350.23,345.25,26.92,0000 0000 0000 0000 000000
2015-06-05 03:03:05,0.02,1.70,0.00,26.16,29.40,31.90,4.69,25.85,1019.54,2027.06,2872.96,2794.97,3046.06,350.06,345.06,26.95,0000 0000 0000 0000 000000
2015-06-05 03:08:06,0.04,1.71,0.00,26.19,29.42,31.91,4.70,25.94,1019.55,2027.01,2872.33,2794.56,3045.99,350.00,345.13,26.98,0000 0000 0000 0000 000000
2015-06-05 03:13:08,0.04,1.71,0.00,26.21,29.44,31.93,4.64,25.91,1019.55,2027.00,2872.00,2794.02,3045.57,349.49,344.78,27.01,0000 0000 0000 0000 000000
2015-06-05 03:18:09,0.06,1.71,0.00,26.22,29.45,31.94,4.78,25.84,1019.55,2027.00,2871.32,2793.70,3044.99,350.57,345.33,27.04,0000 0000 0000 0000 000000
2015-06-05 03:23:10,0.08,1.71,0.00,26.24,29.47,31.96,4.69,25.77,1019.56,2027.00,2870.43,2793.03,3044.39,349.79,344.72,27.07,0000 0000 0000 0000 000000
2015-06-05 03:28:12,0.01,1.71,0.00,26.26,29.49,31.97,4.76,25.88,1019.55,2026.98,2870.01,2792.98,3044.01,350.06,344.70,27.10,0000 0000 0000 0000 000000
2015-06-05 03:33:13,0.03,1.71,0.00,26.27,29.51,31.99,4.72,25.83,1019.55,2026.98,2869.95,2792.65,3043.97,349.54,344.30,27.13,0000 0000 0000 0000 000000
2015-06-05 03:38:14,0.07,1.72,0.00,26.29,29.52,32.00,4.70,25.84,1019.55,2026.96,2869.16,2792.05,3043.34,350.17,344.90,27.16,0000 0000 0000 0000 000000
2015-06-05 03:43:15,-0.00,1.72,0.00,26.30,29.55,32.01,4.74,25.87,1019.55,2026.95,2868.99,2792.00,3043.00,350.16,344.86,27.19,0000 0000 0000 0000 000000
2015-06-05 03:48:16,-0.02,1.72,0.00,26.32,29.56,32.03,4.70,25.91,1019.55,2026.70,2868.46,2791.86,3042.98,349.83,344.72,27.22,0000 0000 0000 0000 000000
2015-06-05 03:53:17,-0.01,1.71,0.00,26.34,29.57,32.05,4.71,25.88,1019.55,2026.32,2868.07,2791.44,3042.82,350.01,344.89,27.25,0000 0000 0000 0000 000000
2015-06-05 03:58:19,0.00,1.71,0.00,26.36,29.60,32.06,4.72,26.01,1019.55,2026.13,2868.00,2791.07,3042.22,350.41,345.08,27.28,0000 0000 0000 0000 000000
2015-06-05 04:03:20,-0.00,1.71,0.00,26.37,29.61,32.08,4.68,25.90,1019.55,2026.05,2868.00,2791.00,3042.03,349.76,344.66,27.31,0000 0000 0000 0000 000000
2015-06-05 04:08:21,0.00,1.71,0.00,26.40,29.62,32.10,4.63,25.90,1019.55,2026.05,2867.98,2791.00,3042.00,349.79,344.55,27.33,0000 0000 0000 0000 000000
2015-06-05 04:13:22,0.00,1.71,0.00,26.42,29.65,32.11,4.68,25.82,1019.55,2026.00,2867.86,2790.99,3041.99,349.94,344.42,27.36,0000 0000 0000 0000 000000
2015-06-05 04:18:24,0.01,1.71,0.00,26.42,29.66,32.13,4.75,25.84,1019.55,2026.00,2867.56,2790.94,3041.95,350.36,345.10,27.39,0000 0000 0000 0000 000000
2015-06-05 04:23:25,0.05,1.72,0.00,26.45,29.68,32.15,4.75,25.89,1019.55,2026.00,2867.10,2790.57,3041.68,350.25,344.96,27.42,0000 0000 0000 0000 000000
2015-06-05 04:28:27,0.03,1.72,0.00,26.46,29.70,32.16,4.67,25.89,1019.55,2026.00,2867.01,2790.13,3041.18,349.79,344.35,27.45,0000 0000 0000 0000 000000
2015-06-05 04:33:28,0.00,1.72,0.00,26.47,29.71,32.18,4.75,25.92,1019.55,2025.99,2867.00,2790.02,3041.02,350.31,344.77,27.48,0000 0000 0000 0000 000000
2015-06-05 04:38:29,-0.00,1.72,0.00,26.47,29.72,32.19,4.74,25.86,1019.55,2025.96,2866.98,2790.00,3041.00,349.93,344.51,27.51,0000 0000 0000 0000 000000
2015-06-05 04:43:30,0.00,1.72,0.00,26.48,29.75,32.22,4.70,25.85,1019.55,2025.96,2866.95,2789.99,3040.99,349.91,344.64,27.54,0000 0000 0000 0000 000000
2015-06-05 04:48:32,0.00,1.72,0.00,26.51,29.76,32.24,4.71,25.88,1019.55,2025.89,2866.62,2789.97,3040.96,349.84,344.30,27.57,0000 0000 0000 0000 000000
2015-06-05 04:53:33,0.02,1.72,0.00,26.52,29.77,32.26,4.71,25.91,1019.54,2025.78,2866.11,2789.91,3040.84,350.47,345.12,27.60,0000 0000 0000 0000 000000
2015-06-05 04:58:34,-0.03,1.72,0.00,26.52,29.78,32.28,4.65,25.94,1019.54,2025.54,2866.02,2789.49,3040.32,349.62,344.46,27.63,0000 0000 0000 0000 000000
2015-06-05 05:03:36,0.00,1.72,0.00,26.54,29.80,32.31,4.67,25.94,1019.55,2025.29,2866.00,2789.13,3040.06,349.25,343.66,27.66,0000 0000 0000 0000 000000
2015-06-05 05:08:37,-0.02,1.72,0.00,26.55,29.82,32.33,4.65,25.89,1019.55,2025.20,2866.00,2789.06,3040.03,349.56,344.16,27.69,0000 0000 0000 0000 000000
2015-06-05 05:13:38,-0.01,1.72,0.00,26.57,29.82,32.35,4.73,25.98,1019.55,2025.10,2866.00,2789.01,3040.00,350.49,345.03,27.72,0000 0000 0000 0000 000000
2015-06-05 05:18:39,-0.01,1.72,0.00,26.57,29.85,32.38,4.75,25.89,1019.55,2025.02,2865.98,2789.00,3040.00,350.15,344.66,27.74,0000 0000 0000 0000 000000
2015-06-05 05:23:40,0.00,1.72,0.00,26.59,29.86,32.39,4.67,25.87,1019.55,2025.01,2865.90,2789.00,3039.98,349.22,343.65,27.77,0000 0000 0000 0000 000000
2015-06-05 05:28:41,0.02,1.72,0.00,26.60,29.87,32.40,4.65,25.87,1019.55,2025.00,2865.27,2788.99,3039.92,349.81,344.29,27.80,0000 0000 0000 0000 000000
2015-06-05 05:33:43,0.04,1.72,0.00,26.61,29.89,32.41,4.70,25.90,1019.56,2025.00,2865.03,2788.80,3039.44,350.04,344.57,27.83,0000 0000 0000 0000 000000
2015-06-05 05:38:44,0.03,1.72,0.00,26.64,29.90,32.42,4.67,25.96,1019.56,2025.00,2865.00,2788.39,3039.10,349.71,344.20,27.86,0000 0000 0000 0000 000000
2015-06-05 05:43:45,0.01,1.72,0.00,26.65,29.91,32.44,4.76,25.94,1019.57,2025.00,2864.99,2788.06,3039.01,350.20,344.74,27.89,0000 0000 0000 0000 000000
2015-06-05 05:48:46,0.00,1.72,0.00,26.65,29.92,32.44,4.72,25.87,1019.58,2024.99,2864.91,2788.00,3038.99,350.17,344.54,27.92,0000 0000 0000 0000 000000
2015-06-05 05:53:48,0.01,1.72,0.00,26.66,29.95,32.46,4.71,25.86,1019.62,2024.98,2864.58,2788.00,3038.95,350.16,344.49,27.95,0000 0000 0000 0000 000000
2015-06-05 05:58:49,0.01,1.72,0.00,26.67,29.95,32.46,4.67,25.90,1019.72,2024.87,2864.05,2787.96,3038.44,349.98,344.42,27.98,0000 0000 0000 0000 000000
2015-06-05 06:03:51,0.02,1.72,0.00,26.67,29.97,32.46,4.83,25.86,1019.69,2024.86,2864.00,2787.94,3038.05,350.46,344.88,28.01,0000 0000 0000 0000 000000
2015-06-05 06:08:52,-0.02,1.72,0.00,26.69,29.98,32.48,4.68,25.86,1019.61,2024.78,2864.00,2787.86,3038.01,350.20,344.69,28.04,0000 0000 0000 0000 000000
2015-06-05 06:13:54,-0.02,1.72,0.00,26.70,30.00,32.50,4.61,25.85,1019.56,2024.51,2864.00,2787.59,3038.00,349.22,343.63,28.07,0000 0000 0000 0000 000000
2015-06-05 06:18:55,-0.03,1.72,0.00,26.71,30.01,32.52,4.69,25.88,1019.66,2024.15,2863.98,2787.12,3037.99,349.89,344.39,28.10,0000 0000 0000 0000 000000
2015-06-05 06:23:56,0.02,1.72,0.00,26.73,30.02,32.54,4.67,25.82,1019.95,2024.15,2863.93,2787.03,3037.99,349.93,344.59,28.13,0000 0000 0000 0000 000000
2015-06-05 06:28:57,-0.01,1.72,0.00,26.75,30.03,32.57,4.67,25.84,1019.97,2024.06,2863.60,2787.00,3037.96,349.88,344.39,28.15,0000 0000 0000 0000 000000
2015-06-05 06:33:59,0.01,1.72,0.00,26.75,30.05,32.60,4.72,25.89,1019.87,2024.05,2863.31,2787.00,3037.86,349.93,344.34,28.18,0000 0000 0000 0000 000000
2015-06-05 06:39:00,0.01,1.72,0.00,26.77,30.06,32.60,4.78,25.85,1019.80,2024.01,2863.06,2787.00,3037.46,350.56,345.00,28.21,0000 0000 0000 0000 000000
2015-06-05 06:44:01,0.01,1.72,0.00,26.80,30.07,32.62,4.72,25.76,1019.71,2024.00,2863.00,2786.95,3037.05,350.01,344.04,28.24,0000 0000 0000 0000 000000
2015-06-05 06:49:02,0.01,1.72,0.00,26.80,30.08,32.62,4.68,25.77,1019.78,2024.00,2862.99,2786.87,3037.01,349.87,344.20,28.27,0000 0000 0000 0000 000000
2015-06-05 06:54:04,0.01,1.72,0.00,26.83,30.10,32.64,4.76,25.83,1019.59,2024.00,2862.98,2786.74,3037.00,349.82,344.16,28.30,0000 0000 0000 0000 000000
2015-06-05 06:59:05,0.04,1.72,0.00,26.85,30.11,32.65,4.71,25.91,1019.62,2024.00,2862.84,2786.23,3037.00,349.84,344.01,28.33,0000 0000 0000 0000 000000
2015-06-05 07:04:06,0.01,1.72,0.00,26.87,30.12,32.66,4.65,25.80,1019.69,2024.00,2862.66,2786.07,3036.99,350.18,344.03,28.36,0000 0000 0000 0000 000000
2015-06-05 07:09:08,0.01,1.72,0.00,26.90,30.14,32.68,4.70,25.83,1019.63,2024.00,2862.16,2786.00,3036.95,349.85,344.01,28.39,0000 0000 0000 0000 000000
2015-06-05 07:14:09,0.01,1.72,0.00,26.91,30.15,32.69,4.74,25.87,1019.62,2023.99,2862.02,2786.00,3036.66,350.03,344.20,28.42,0000 0000 0000 0000 000000
2015-06-05 07:19:10,0.01,1.72,0.00,26.93,30.17,32.70,4.72,25.76,1019.70,2023.99,2862.00,2786.00,3036.24,349.90,344.11,28.45,0000 0000 0000 0000 000000
2015-06-05 07:24:12,0.00,1.72,0.00,26.96,30.17,32.72,4.68,25.78,1019.88,2023.97,2862.00,2785.98,3036.06,349.94,344.09,28.48,0000 0000 0000 0000 000000
2015-06-05 07:29:13,-0.01,1.72,0.00,26.98,30.20,32.73,4.80,25.76,1019.83,2023.95,2862.00,2785.97,3036.00,350.23,344.20,28.51,0000 0000 0000 0000 000000
2015-06-05 07:34:14,0.02,1.72,0.00,27.01,30.20,32.74,4.69,25.81,1019.84,2023.93,2861.86,2785.76,3036.00,349.69,343.83,28.54,0000 0000 0000 0000 000000
2015-06-05 07:39:16,0.01,1.72,0.00,27.03,30.22,32.76,4.67,25.77,1019.91,2023.73,2861.19,2785.14,3035.97,349.50,343.62,28.56,0000 0000 0000 0000 000000
2015-06-05 07:44:17,-0.04,1.72,0.00,27.06,30.23,32.75,4.74,25.74,1020.03,2023.36,2861.00,2785.01,3035.74,350.04,344.17,28.59,0000 0000 0000 0000 000000
2015-06-05 07:49:18,-0.00,1.72,0.00,27.08,30.25,32.77,4.66,25.79,1020.03,2023.18,2860.99,2785.00,3035.22,349.95,344.07,28.62,0000 0000 0000 0000 000000
2015-06-05 07:54:20,-0.01,1.72,0.00,27.10,30.26,32.78,4.77,25.73,1020.03,2023.11,2860.96,2785.00,3035.02,350.31,344.28,28.65,0000 0000 0000 0000 000000
2015-06-05 07:59:21,0.02,1.72,0.00,27.12,30.28,32.80,4.66,25.78,1020.03,2023.04,2860.36,2784.91,3035.00,349.22,343.35,28.68,0000 0000 0000 0000 000000
2015-06-05 08:04:22,0.01,1.72,0.00,27.16,30.30,32.80,4.69,25.75,1020.04,2023.00,2860.05,2784.62,3034.98,350.43,344.33,28.71,0000 0000 0000 0000 000000
2015-06-05 08:09:23,0.02,1.72,0.00,27.19,30.31,32.82,4.71,25.75,1020.04,2023.00,2860.00,2784.12,3034.87,350.15,344.14,28.74,0000 0000 0000 0000 000000
2015-06-05 08:14:25,0.02,1.73,0.00,27.23,30.32,32.85,4.67,25.78,1020.04,2023.00,2859.96,2784.01,3034.28,350.07,344.03,28.77,0000 0000 0000 0000 000000
2015-06-05 08:19:26,0.02,1.73,0.00,27.25,30.35,32.87,4.70,25.79,1020.04,2023.00,2859.56,2784.00,3034.02,350.05,343.94,28.80,0000 0000 0000 0000 000000
2015-06-05 08:24:27,0.01,1.73,0.00,27.27,30.36,32.88,4.69,25.73,1020.04,2023.00,2859.05,2783.99,3034.00,349.86,343.92,28.83,0000 0000 0000 0000 000000
2015-06-05 08:29:28,0.01,1.73,0.00,27.28,30.38,32.89,4.68,25.71,1020.04,2022.99,2859.00,2783.77,3033.93,349.94,343.87,28.86,0000 0000 0000 0000 000000
2015-06-05 08:34:30,0.06,1.73,0.00,27.30,30.40,32.91,4.68,25.73,1020.04,2022.97,2858.81,2783.15,3033.40,350.03,343.89,28.89,0000 0000 0000 0000 000000
2015-06-05 08:39:31,0.03,1.73,0.00,27.32,30.42,32.93,4.74,25.65,1020.03,2022.97,2858.33,2783.03,3033.10,350.32,344.23,28.92,0000 0000 0000 0000 000000
2015-06-05 08:44:33,-0.02,1.73,0.00,27.34,30.44,32.92,4.77,25.78,1020.03,2022.90,2858.00,2783.00,3033.00,349.82,343.46,28.95,0000 0000 0000 0000 000000
2015-06-05 08:49:34,-0.06,1.73,0.00,27.36,30.45,32.94,4.69,25.87,1020.03,2022.62,2857.99,2782.88,3032.98,349.90,343.62,28.98,0000 0000 0000 0000 000000
2015-06-05 08:54:35,0.01,1.73,0.00,27.37,30.47,32.94,4.70,25.76,1020.03,2022.22,2857.74,2782.35,3032.58,349.71,343.61,29.00,0000 0000 0000 0000 000000
2015-06-05 08:59:36,0.03,1.73,0.00,27.39,30.49,32.96,4.68,25.75,1020.03,2022.05,2857.10,2782.05,3032.05,349.94,343.74,29.03,0000 0000 0000 0000 000000
2015-06-05 09:04:37,-0.01,1.73,0.00,27.41,30.51,32.97,4.66,25.71,1020.04,2022.03,2857.01,2782.00,3032.01,349.93,343.54,29.06,0000 0000 0000 0000 000000
2015-06-05 09:09:38,0.00,1.73,0.00,27.43,30.52,32.98,4.72,25.80,1020.05,2022.01,2856.99,2781.99,3032.00,350.45,344.07,29.09,0000 0000 0000 0000 000000
2015-06-05 09:14:40,0.01,1.73,0.00,27.45,30.55,33.01,4.70,25.74,1020.05,2022.01,2856.92,2781.95,3031.97,350.09,343.55,29.12,0000 0000 0000 0000 000000
2015-06-05 09:19:41,0.07,1.73,0.00,27.48,30.56,33.03,4.70,25.76,1020.05,2022.00,2856.30,2781.53,3031.60,349.94,343.59,29.15,0000 0000 0000 0000 000000
2015-06-05 09:24:42,0.03,1.73,0.00,27.50,30.58,33.06,4.70,25.72,1020.04,2022.00,2856.00,2781.04,3031.05,350.08,343.85,29.18,0000 0000 0000 0000 000000
2015-06-05 09:29:44,0.01,1.73,0.00,27.52,30.60,33.09,4.67,25.77,1020.04,2021.99,2855.77,2780.99,3030.99,349.84,343.47,29.21,0000 0000 0000 0000 000000
2015-06-05 09:34:45,0.05,1.73,0.00,27.55,30.62,33.11,4.67,25.76,1020.04,2021.97,2855.12,2780.81,3030.59,349.79,343.44,29.24,0000 0000 0000 0000 000000
2015-06-05 09:39:46,0.03,1.74,0.00,27.57,30.64,33.13,4.73,25.69,1020.04,2021.94,2855.00,2780.18,3030.06,350.02,343.89,29.27,0000 0000 0000 0000 000000
2015-06-05 09:44:48,0.00,1.74,0.00,27.60,30.66,33.16,4.70,25.76,1020.04,2021.88,2854.73,2780.02,3030.00,350.21,343.66,29.30,0000 0000 0000 0000 000000
2015-06-05 09:49:49,-0.02,1.74,0.00,27.61,30.68,33.16,4.64,25.82,1020.04,2021.69,2854.20,2780.00,3029.99,349.74,343.32,29.33,0000 0000 0000 0000 000000
2015-06-05 09:54:50,-0.04,1.73,0.00,27.65,30.70,33.18,4.71,25.84,1020.04,2021.39,2854.01,2779.98,3029.84,350.06,343.54,29.36,0000 0000 0000 0000 000000
2015-06-05 09:59:52,0.01,1.73,0.00,27.67,30.72,33.19,4.64,25.90,1020.04,2021.08,2853.96,2779.47,3029.15,349.72,343.31,29.39,0000 0000 0000 0000 000000
2015-06-05 10:04:53,0.02,1.73,0.00,27.70,30.75,33.20,4.76,25.89,1020.03,2021.03,2853.74,2779.17,3029.00,350.46,343.70,29.41,0000 0000 0000 0000 000000
2015-06-05 10:09:54,0.02,1.74,0.00,27.71,30.77,33.20,4.71,25.82,1020.03,2021.01,2853.16,2779.01,3029.00,350.28,343.53,29.44,0000 0000 0000 0000 000000
2015-06-05 10:14:55,0.01,1.74,0.00,27.74,30.79,33.21,4.67,25.81,1020.04,2021.00,2853.00,2779.00,3028.83,349.98,343.39,29.47,0000 0000 0000 0000 000000
2015-06-05 10:19:56,0.03,1.74,0.00,27.76,30.81,33.22,4.67,25.75,1020.04,2021.00,2852.99,2778.91,3028.20,349.82,343.01,29.50,0000 0000 0000 0000 000000
2015-06-05 10:24:57,0.07,1.74,0.00,27.79,30.84,33.24,4.76,25.77,1020.04,2021.00,2852.45,2778.32,3028.01,350.03,343.34,29.53,0000 0000 0000 0000 000000
2015-06-05 10:29:58,0.01,1.74,0.00,27.82,30.86,33.25,4.75,25.75,1020.03,2020.95,2852.00,2778.00,3027.79,350.28,343.44,29.56,0000 0000 0000 0000 000000
2015-06-05 10:35:00,0.06,1.74,0.00,27.84,30.89,33.28,4.67,25.73,1020.03,2020.87,2851.41,2777.60,3027.06,349.68,342.93,29.59,0000 0000 0000 0000 000000
2015-06-05 10:40:01,-0.04,1.74,0.00,27.86,30.91,33.29,4.70,25.77,1020.03,2020.43,2850.92,2777.02,3026.78,350.16,343.44,29.62,0000 0000 0000 0000 000000
2015-06-05 10:45:03,0.01,1.74,0.00,27.89,30.94,33.30,4.80,25.80,1020.03,2020.07,2850.14,2776.77,3026.06,350.12,343.30,29.65,0000 0000 0000 0000 000000
2015-06-05 10:50:04,0.03,1.74,0.00,27.92,30.97,33.34,4.66,25.80,1020.04,2020.01,2849.97,2776.08,3025.94,349.92,343.01,29.68,0000 0000 0000 0000 000000
2015-06-05 10:55:05,0.04,1.74,0.00,27.96,31.00,33.37,4.68,25.73,1020.04,2020.01,2849.62,2776.00,3025.41,349.39,342.54,29.71,0000 0000 0000 0000 000000
2015-06-05 11:00:07,0.02,1.74,0.00,27.99,31.03,33.40,4.65,25.76,1020.04,2020.00,2849.03,2775.97,3025.01,349.76,342.94,29.74,0000 0000 0000 0000 000000
2015-06-05 11:05:08,0.02,1.74,0.00,28.02,31.06,33.43,4.70,25.77,1020.04,2020.00,2849.00,2775.67,3024.98,349.91,343.04,29.77,0000 0000 0000 0000 000000
2015-06-05 11:10:09,0.05,1.74,0.00,28.05,31.08,33.46,4.67,25.71,1020.04,2019.96,2848.77,2775.08,3024.48,350.00,343.06,29.80,0000 0000 0000 0000 000000
2015-06-05 11:15:10,0.02,1.75,0.00,28.07,31.11,33.51,4.73,25.78,1020.04,2019.91,2848.10,2775.00,3024.02,350.08,343.07,29.82,0000 0000 0000 0000 000000
2015-06-05 11:20:12,-0.06,1.74,0.00,28.10,31.14,33.54,4.66,25.74,1020.04,2019.59,2848.00,2774.93,3024.00,350.15,343.11,29.85,0000 0000 0000 0000 000000
2015-06-05 11:25:13,-0.01,1.74,0.00,28.11,31.17,33.56,4.72,25.81,1020.04,2019.18,2847.82,2774.32,3023.85,350.02,342.95,29.88,0000 0000 0000 0000 000000
2015-06-05 11:30:15,0.03,1.74,0.00,28.12,31.20,33.59,4.65,25.82,1020.04,2019.04,2847.21,2774.03,3023.23,349.77,342.67,29.91,0000 0000 0000 0000 000000
2015-06-05 11:35:16,0.00,1.75,0.00,28.13,31.22,33.62,4.82,25.82,1020.04,2019.00,2847.00,2774.00,3023.01,350.80,343.71,29.94,0000 0000 0000 0000 000000
2015-06-05 11:40:17,0.02,1.75,0.00,28.15,31.25,33.67,4.59,25.71,1020.05,2019.00,2846.85,2773.87,3022.94,349.41,342.58,29.97,0000 0000 0000 0000 000000
2015-06-05 11:45:18,0.08,1.75,0.00,28.15,31.27,33.70,4.67,25.62,1020.05,2018.99,2846.17,2773.24,3022.33,349.45,342.37,30.00,0000 0000 0000 0000 000000
2015-06-05 11:50:20,0.01,1.75,0.00,28.15,31.29,33.74,4.71,25.73,1020.06,2018.98,2846.01,2773.05,3022.05,350.16,343.06,30.03,0000 0000 0000 0000 000000
2015-06-05 11:55:21,0.00,1.75,0.00,28.13,31.30,33.76,4.76,25.79,1020.05,2018.95,2845.97,2773.00,3022.00,350.15,342.83,30.06,0000 0000 0000 0000 000000
2015-06-05 12:00:22,0.00,1.75,0.00,28.09,31.32,33.79,4.67,25.71,1020.05,2018.88,2845.48,2772.98,3021.99,349.49,342.60,30.09,0000 0000 0000 0000 000000
2015-06-05 12:05:23,-0.01,1.75,0.00,28.06,31.33,33.82,4.66,25.72,1020.04,2018.69,2845.20,2772.93,3021.83,349.81,342.81,30.12,0000 0000 0000 0000 000000
2015-06-05 12:10:25,-0.01,1.75,0.00,28.01,31.35,33.84,4.67,25.75,1020.04,2018.33,2845.02,2772.50,3021.29,349.83,342.82,30.15,0000 0000 0000 0000 000000
2015-06-05 12:15:26,-0.02,1.75,0.00,27.98,31.35,33.88,4.65,25.70,1020.04,2018.07,2845.00,2772.09,3021.02,350.27,343.29,30.18,0000 0000 0000 0000 000000
2015-06-05 12:20:27,0.00,1.75,0.00,27.94,31.36,33.91,4.76,25.73,1020.05,2018.04,2844.99,2772.02,3021.00,350.39,343.17,30.21,0000 0000 0000 0000 000000
2015-06-05 12:25:28,0.00,1.75,0.00,27.91,31.37,33.92,4.66,25.71,1020.04,2018.02,2844.85,2772.00,3021.00,349.29,342.46,30.24,0000 0000 0000 0000 000000
2015-06-05 12:30:29,0.01,1.75,0.00,27.89,31.37,33.93,4.72,25.66,1020.05,2018.02,2844.54,2772.00,3021.00,349.98,343.21,30.26,0000 0000 0000 0000 000000
2015-06-05 12:35:31,0.01,1.75,0.00,27.86,31.37,33.94,4.65,25.69,1020.06,2018.01,2844.07,2772.00,3020.98,349.98,343.05,30.29,0000 0000 0000 0000 000000
2015-06-05 12:40:32,0.00,1.75,0.00,27.83,31.37,33.94,4.65,25.68,1020.16,2018.00,2844.00,2772.00,3020.95,349.78,343.16,30.32,0000 0000 0000 0000 000000
2015-06-05 12:45:34,0.01,1.75,0.00,27.81,31.37,33.94,4.63,25.72,1020.23,2018.00,2844.00,2771.98,3020.76,349.88,343.35,30.35,0000 0000 0000 0000 000000
2015-06-05 12:50:35,0.00,1.75,0.00,27.79,31.37,33.94,4.69,25.74,1020.30,2018.00,2843.99,2771.97,3020.51,349.79,343.26,30.38,0000 0000 0000 0000 000000
2015-06-05 12:55:36,0.02,1.75,0.00,27.77,31.37,33.94,4.67,25.71,1020.44,2018.00,2843.94,2771.90,3020.21,350.16,343.55,30.41,0000 0000 0000 0000 000000
2015-06-05 13:00:38,0.03,1.75,0.00,27.76,31.37,33.93,4.72,25.77,1020.39,2018.01,2843.55,2771.66,3020.06,350.12,343.68,30.44,0000 0000 0000 0000 000000